Weather History for Alva, OK

Change the Weather History Date:

Wednesday, March 27, 2013

  Actual Average Record
Temperature  
Mean Temperature 52 °F -  
Max Temperature 66 °F 67 °F 87 °F (1971)
Min Temperature 37 °F 40 °F 12 °F (1955)
Degree Days  
Heating Degree Days 14    
Growing Degree Days 2 (Base 50)    
Moisture  
Dew Point 28 °F    
Average Humidity 44    
Maximum Humidity 70    
Minimum Humidity 24    
Precipitation  
Precipitation 0.00 in - - ()
Sea Level Pressure  
Sea Level Pressure 30.06 in    
Wind  
Wind Speed 12 mph (SE)    
Max Wind Speed 23 mph    
Max Gust Speed 30 mph    
Visibility 10 miles    
Events      
Averages and records for this station are not official NWS values.
T = Trace of Precipitation, MM = Missing Value Source: NWS Daily Summary

Daily Weather History Graph

Daily Weather History Graph

Search for Another Location

Airport:

Trip Planner

Search our weather history database for the weather conditions in past years. The results will help you decide how hot, cold, wet, or windy it might be!

Date:

Astronomy

Mar. 27, 2013 Rise Set
Actual Time 7:27 AM CDT 7:52 PM CDT
Civil Twilight 7:01 AM CDT 8:18 PM CDT
Nautical Twilight 6:31 AM CDT 8:49 PM CDT
Astronomical Twilight 6:00 AM CDT 9:20 PM CDT
Moon 8:36 PM CDT (3/27) 7:20 AM CDT (3/27)
Length of Visible Light 13h 17m
Length of Day
12h 25m
Full, 100% of the Moon is Illuminated
Mar 27
Full
Apr 2
Last Quarter
Apr 10
New
Apr 18
First Quarter
Apr 25
Full

Hourly Weather History & Observations

Time (CDT) Temp. Windchill Dew Point Humidity Pressure Visibility Wind Dir Wind Speed Gust Speed Precip Events Conditions
12:10 AM 41.0 °F 33.1 °F 24.8 °F 53% 30.14 in 10.0 mi SSE 15.0 mph - N/A   Overcast
12:30 AM 41.0 °F 33.5 °F 23.0 °F 49% 30.14 in 10.0 mi SSE 13.8 mph 20.7 mph N/A   Overcast
12:50 AM 41.0 °F 33.9 °F 23.0 °F 49% 30.14 in 10.0 mi SSE 12.7 mph - N/A   Overcast
1:10 AM 41.0 °F 33.5 °F 23.0 °F 49% 30.14 in 10.0 mi SSE 13.8 mph - N/A   Overcast
1:30 AM 41.0 °F 34.3 °F 23.0 °F 49% 30.13 in 10.0 mi SSE 11.5 mph - N/A   Overcast
1:50 AM 41.0 °F 34.3 °F 24.8 °F 53% 30.13 in 10.0 mi SSE 11.5 mph - N/A   Overcast
2:10 AM 39.2 °F 32.0 °F 24.8 °F 56% 30.13 in 10.0 mi SE 11.5 mph - N/A   Overcast
2:30 AM 39.2 °F 32.0 °F 24.8 °F 56% 30.12 in 10.0 mi SSE 11.5 mph - N/A   Overcast
2:50 AM 39.2 °F 32.0 °F 24.8 °F 56% 30.10 in 10.0 mi SSE 11.5 mph - N/A   Overcast
3:10 AM 39.2 °F 31.6 °F 24.8 °F 56% 30.10 in 10.0 mi SSE 12.7 mph 17.3 mph N/A   Overcast
3:30 AM 39.2 °F 32.5 °F 24.8 °F 56% 30.09 in 10.0 mi SSE 10.4 mph - N/A   Mostly Cloudy
3:50 AM 39.2 °F 32.5 °F 24.8 °F 56% 30.08 in 10.0 mi SSE 10.4 mph - N/A   Partly Cloudy
4:10 AM 37.4 °F 30.3 °F 24.8 °F 60% 30.08 in 10.0 mi SE 10.4 mph - N/A   Partly Cloudy
4:30 AM 37.4 °F 29.8 °F 24.8 °F 60% 30.07 in 10.0 mi SE 11.5 mph - N/A   Clear
4:50 AM 37.4 °F 30.8 °F 26.6 °F 65% 30.06 in 10.0 mi SSE 9.2 mph - N/A   Clear
5:10 AM 37.4 °F 31.4 °F 26.6 °F 65% 30.06 in 10.0 mi SE 8.1 mph - N/A   Partly Cloudy
5:50 AM 39.2 °F 33.0 °F 26.6 °F 61% 30.05 in 10.0 mi SE 9.2 mph - N/A   Clear
6:10 AM 39.2 °F 33.6 °F 26.6 °F 61% 30.06 in 10.0 mi ESE 8.1 mph - N/A   Clear
6:30 AM 39.2 °F 32.5 °F 26.6 °F 61% 30.05 in 10.0 mi SE 10.4 mph - N/A   Clear
6:50 AM 39.2 °F 33.0 °F 26.6 °F 61% 30.06 in 10.0 mi SE 9.2 mph - N/A   Clear
7:10 AM 37.4 °F 32.8 °F 26.6 °F 65% 30.06 in 10.0 mi ESE 5.8 mph - N/A   Clear
7:30 AM 37.4 °F 32.1 °F 26.6 °F 65% 30.06 in 10.0 mi ESE 6.9 mph - N/A   Clear
7:50 AM 37.4 °F 31.4 °F 28.4 °F 70% 30.06 in 9.0 mi ESE 8.1 mph - N/A   Clear
8:10 AM 39.2 °F 33.6 °F 28.4 °F 65% 30.06 in 10.0 mi SE 8.1 mph - N/A   Clear
8:30 AM 41.0 °F 34.3 °F 26.6 °F 57% 30.06 in 10.0 mi South 11.5 mph - N/A   Clear
8:50 AM 44.6 °F 38.4 °F 26.6 °F 49% 30.06 in 10.0 mi South 12.7 mph - N/A   Clear
9:10 AM 44.6 °F 38.4 °F 26.6 °F 49% 30.07 in 10.0 mi South 12.7 mph - N/A   Clear
9:50 AM 46.4 °F 39.5 °F 26.6 °F 46% 30.06 in 10.0 mi South 17.3 mph - N/A   Clear
10:10 AM 48.2 °F - 26.6 °F 43% 30.06 in 10.0 mi South 16.1 mph - N/A   Clear
10:30 AM 50.0 °F - 26.6 °F 40% 30.06 in 10.0 mi South 15.0 mph 20.7 mph N/A   Clear
10:50 AM 51.8 °F - 24.8 °F 35% 30.06 in 10.0 mi SSW 23.0 mph 29.9 mph N/A   Clear
11:10 AM 53.6 °F - 26.6 °F 35% 30.06 in 10.0 mi South 23.0 mph 28.8 mph N/A   Clear
11:30 AM 53.6 °F - 26.6 °F 35% 30.06 in 10.0 mi SSW 20.7 mph - N/A   Clear
11:50 AM 55.4 °F - 26.6 °F 33% 30.06 in 10.0 mi SSW 20.7 mph 24.2 mph N/A   Clear
12:10 PM 57.2 °F - 28.4 °F 33% 30.05 in 10.0 mi SSW 18.4 mph 25.3 mph N/A   Clear
12:30 PM 57.2 °F - 28.4 °F 33% 30.06 in 10.0 mi SW 15.0 mph 23.0 mph N/A   Clear
12:50 PM 59.0 °F - 28.4 °F 31% 30.06 in 10.0 mi SSW 18.4 mph 21.9 mph N/A   Clear
1:10 PM 59.0 °F - 28.4 °F 31% 30.05 in 10.0 mi SW 13.8 mph 23.0 mph N/A   Clear
1:30 PM 60.8 °F - 28.4 °F 29% 30.05 in 10.0 mi SSW 17.3 mph 23.0 mph N/A   Clear
1:50 PM 62.6 °F - 28.4 °F 27% 30.04 in 10.0 mi SSW 12.7 mph 26.5 mph N/A   Clear
2:10 PM 62.6 °F - 28.4 °F 27% 30.04 in 10.0 mi SW 10.4 mph 23.0 mph N/A   Clear
2:50 PM 64.4 °F - 28.4 °F 26% 30.03 in 10.0 mi SSW 13.8 mph 19.6 mph N/A   Clear
3:10 PM 64.4 °F - 28.4 °F 26% 30.02 in 10.0 mi SSW 11.5 mph 18.4 mph N/A   Clear
3:30 PM 64.4 °F - 28.4 °F 26% 30.02 in 10.0 mi SSW 5.8 mph 16.1 mph N/A   Clear
3:50 PM 66.2 °F - 30.2 °F 26% 30.02 in 10.0 mi SW 8.1 mph - N/A   Clear
4:10 PM 66.2 °F - 28.4 °F 24% 30.02 in 10.0 mi South 9.2 mph - N/A   Clear
4:30 PM 66.2 °F - 30.2 °F 26% 30.01 in 10.0 mi SSW 5.8 mph - N/A   Clear
4:50 PM 66.2 °F - 28.4 °F 24% 30.01 in 10.0 mi SE 6.9 mph - N/A   Clear
5:10 PM 66.2 °F - 30.2 °F 26% 30.01 in 10.0 mi SSE 5.8 mph - N/A   Clear
5:30 PM 66.2 °F - 30.2 °F 26% 30.02 in 10.0 mi South 4.6 mph - N/A   Clear
5:50 PM 66.2 °F - 30.2 °F 26% 30.02 in 10.0 mi SSE 4.6 mph - N/A   Clear
6:10 PM 66.2 °F - 32.0 °F 28% 30.02 in 10.0 mi SE 5.8 mph - N/A   Clear
6:30 PM 66.2 °F - 32.0 °F 28% 30.02 in 10.0 mi ENE 4.6 mph - N/A   Clear
6:50 PM 66.2 °F - 32.0 °F 28% 30.03 in 10.0 mi East 3.5 mph - N/A   Clear
7:10 PM 64.4 °F - 35.6 °F 34% 30.03 in 10.0 mi East 8.1 mph - N/A   Clear
7:30 PM 62.6 °F - 33.8 °F 34% 30.04 in 10.0 mi ENE 6.9 mph - N/A   Clear
7:50 PM 59.0 °F - 33.8 °F 39% 30.04 in 10.0 mi ENE 9.2 mph - N/A   Clear
8:10 PM 59.0 °F - 32.0 °F 36% 30.05 in 10.0 mi ENE 9.2 mph - N/A   Clear
8:30 PM 57.2 °F - 32.0 °F 38% 30.05 in 10.0 mi ENE 6.9 mph - N/A   Partly Cloudy
8:50 PM 55.4 °F - 32.0 °F 41% 30.06 in 10.0 mi ENE 8.1 mph - N/A   Partly Cloudy
9:10 PM 53.6 °F - 32.0 °F 44% 30.07 in 10.0 mi ENE 9.2 mph - N/A   Partly Cloudy
9:30 PM 53.6 °F - 32.0 °F 44% 30.08 in 10.0 mi ENE 6.9 mph - N/A   Partly Cloudy
9:50 PM 51.8 °F - 32.0 °F 47% 30.08 in 10.0 mi ENE 8.1 mph - N/A   Partly Cloudy
10:10 PM 51.8 °F - 32.0 °F 47% 30.09 in 10.0 mi NE 9.2 mph - N/A   Scattered Clouds
10:30 PM 50.0 °F - 32.0 °F 50% 30.10 in 10.0 mi NNE 10.4 mph - N/A   Mostly Cloudy
10:50 PM 50.0 °F - 32.0 °F 50% 30.10 in 10.0 mi NE 11.5 mph - N/A   Mostly Cloudy
11:10 PM 48.2 °F - 32.0 °F 54% 30.10 in 10.0 mi NE 11.5 mph - N/A   Overcast
11:30 PM 46.4 °F 41.5 °F 32.0 °F 57% 30.11 in 10.0 mi NE 10.4 mph - N/A   Mostly Cloudy
11:50 PM 46.4 °F 41.1 °F 32.0 °F 57% 30.10 in 10.0 mi NE 11.5 mph - N/A   Mostly Cloudy